TimeMDT,TemperatureF,Dew PointF,Humidity,Sea Level PressureIn,VisibilityMPH,Wind Direction,Wind SpeedMPH,Gust SpeedMPH,PrecipitationIn,Events,Conditions,WindDirDegrees,DateUTC
12:53 AM,32.0,28.9,88,30.09,10.0,SSW,3.5,-,N/A,,Overcast,200,2013-10-12 06:53:00
1:53 AM,34.0,30.9,89,30.09,10.0,Calm,Calm,-,N/A,,Overcast,0,2013-10-12 07:53:00
2:53 AM,34.0,32.0,92,30.10,10.0,SW,4.6,-,N/A,,Overcast,230,2013-10-12 08:53:00
3:53 AM,37.0,33.1,86,30.10,10.0,Calm,Calm,-,N/A,,Overcast,0,2013-10-12 09:53:00
4:53 AM,37.0,32.0,82,30.10,10.0,Calm,Calm,-,N/A,,Overcast,0,2013-10-12 10:53:00
5:53 AM,37.0,33.1,86,30.11,10.0,Calm,Calm,-,N/A,,Overcast,0,2013-10-12 11:53:00
6:53 AM,34.0,30.9,89,30.14,10.0,Calm,Calm,-,N/A,,Partly Cloudy,0,2013-10-12 12:53:00
7:53 AM,30.0,28.0,92,30.17,10.0,WSW,8.1,-,N/A,,Scattered Clouds,240,2013-10-12 13:53:00
8:53 AM,35.1,32.0,89,30.19,10.0,SW,5.8,-,N/A,,Overcast,230,2013-10-12 14:53:00
9:53 AM,37.9,34.0,86,30.20,10.0,Calm,Calm,-,N/A,,Overcast,0,2013-10-12 15:53:00
10:53 AM,42.1,34.0,73,30.19,10.0,Calm,Calm,-,N/A,,Overcast,0,2013-10-12 16:53:00
11:53 AM,48.0,32.0,54,30.17,10.0,East,5.8,-,N/A,,Overcast,80,2013-10-12 17:53:00
12:53 PM,50.0,28.0,43,30.16,10.0,East,6.9,-,N/A,,Overcast,90,2013-10-12 18:53:00
1:53 PM,52.0,26.1,37,30.14,10.0,ENE,9.2,-,N/A,,Overcast,60,2013-10-12 19:53:00
2:53 PM,52.0,26.1,37,30.14,10.0,East,6.9,-,N/A,,Partly Cloudy,90,2013-10-12 20:53:00
3:53 PM,52.0,26.1,37,30.14,10.0,East,6.9,-,N/A,,Partly Cloudy,90,2013-10-12 21:53:00
4:53 PM,51.1,26.1,38,30.15,10.0,SE,6.9,-,N/A,,Clear,130,2013-10-12 22:53:00
5:53 PM,48.9,28.0,44,30.16,10.0,East,4.6,-,N/A,,Overcast,100,2013-10-12 23:53:00
6:53 PM,46.0,28.9,51,30.18,10.0,East,5.8,-,N/A,,Overcast,90,2013-10-13 00:53:00
7:53 PM,44.1,30.0,58,30.20,10.0,East,6.9,-,N/A,,Overcast,90,2013-10-13 01:53:00
8:53 PM,43.0,28.9,58,30.20,10.0,NE,5.8,-,N/A,,Overcast,50,2013-10-13 02:53:00
9:53 PM,43.0,30.0,60,30.21,10.0,NE,3.5,-,N/A,,Overcast,50,2013-10-13 03:53:00
10:53 PM,46.0,28.0,50,30.21,10.0,ENE,10.4,-,N/A,,Overcast,70,2013-10-13 04:53:00
11:53 PM,43.0,28.9,58,30.22,10.0,East,8.1,-,N/A,,Overcast,80,2013-10-13 05:53:00